SCP
0 0 -0 0 0 0 0 0 0 0 0 0 0 0 0 0 0 0 0 0 0 0 0 0 0 0 0 0 0 0 0 0 0 0 0 0 0 0 0 0 0 0 0 0
0 0 0 0 0 -0 0 0 0 0 0 0 0 0 0 0 0 0 0 0 0 0 0 0 0 0 0 0 0 0 0 0 0 0 0 0 0 0 0 0 0 0 0 0
0 0 0 0 0 0 0 0 0 0 0 0 0 0 0 0 0 0 0 0 0 0 0 0 0 0 0 0 0 0 0 0 0 0 0 0 0 0 0 0 0 0 0 0
0 0 0 0 0 0 0 0 0 0 0 0 0 0 0 0 0 0 0 0 0 0 0 0 0 0 0 0 0 0 0 0 0 0 0 0 0 0 0 0 0 0 0 0
0 0 0 0 0 0 0 0 0 0 0 0 0 0 0 0 0 0 0 0 0 0 0 0 0 0 0 0 0 0 0 0 0 0 0 0 0 0 0 0 0 0 0 0
0 0 0 0 0 0 0 0 0 0 0 0 0 0 0 0 0 0 0 0 0 0 0 0 0 0 0 0 0 0 0 0 0 0 0 0 0 0 0 0 0 0 0 0
0 0 0 0 0 0 0 0 0 0 0 0 0 0 0 0 0 0 0 0 0 0 0 0 0 0 0 0 0 0 0 0 0 0 0 0 -0 0 0 0 0 0 0 0
0 0 0 0 0 0 0 0 0 0 0 0 0 0 0 0 0 0 0 0 0 0 0 0 0 0 0 0 0 0 0 0 0 0 0 0 0 0 0 0 0 0 0 0
0 0 0 0 0 0 0 0 0 0 0 0 0 0 0 0 0 0 0 0 0 0 0 0 0 0 0 0 0 -0 0 0 0 0 0 -0 0 0 0 0 0 0 0 0
0 0 0 0 0 0 0 0 0 0 0 0 0 0 0 0 0 0 0 0 0 0 0 0 0 0 0 0 0 0 0 0 0 0 0 0 -0 0 0 -0 0 0 0 0
0 0 0 0 0 0 0 0 0 0 0 0 0 0 0 0 0 0 0 0 0 0 0 0 0 0 0 0 0 0 0 0 0 0 0 0 0 0 0 0 0 0 0 0
0 0 0 0 0 0 0 0 0 0 0 0 0 0 0 0 0 0 0 0 0 0 0 0 0 0 0 0 0 0 0 0 0 0 0 0 0 0 0 0 0 0 0 0
0 0 0 0 0 0 -0 0 0 0 0 0 0 0 0 0 -0 -0 0 0 0 0 0 0 0 0 0 0 0 0 0 0 0 0 0 0 0 0 0 -0 0 0 0 0
0 0 0 0 0 0 -0 0 0 0 0 0 0 0 0 0 0 0 0 -0 0 0 0 0 0 0 0 0 0 0 0 0 -0 0 -0 0 -0 -0 0 0 0 0 0 0
0 0 0 0 0 0 0 0 0 0 0 0 0 -0 -0 0 0 -0 -0 0 0 0 0 0 0 0 0 0 0 0 -0 0 0 -0 0 0 0 0 0 0 0 0 0 0
0 0 0 0 0 0 0 0 0 0 0 0 0 0 -0 0 0 0 -0 -0 0 0 0 0 0 0 0 -0 -0 -0 0 0 0 0 0 0 0 0 0 0 0 0 0 0
0 -0 -0 -0 0 -0 0 0 0 -0 -0 -0 0 0 -0 -0 -0 -0 -0 0 0 0 0 0 0 -0 -0 -0 -0 -0 0 0 0 0 0 0 0 0 0 0 0 0 0 0
-0 0 -0 -0 0 0 -0 -0 -0 -0 -0 -0 0 0 0 0 0 -0 -0 0 0 0 0 -0 -0 -0 -0 -0 -0 -0 -0 -0 -0 -0 -0 0 0 0 0 0 0 0 0 0
-0 -0 -0 -0 0 0 -0 -0 -0 -0 -0 0 0 0 0 0 -0 0 -0 -0 -0 0 0 0 -0 0 -0 -0 0 0 0 0 0 0 0 0 0 -0 0 0 0 0 0 0
-0 0 0 0 0 0 0 -0 -0 0 0 0 0 0 0 -0 -0 0 -0 0 -0 -0 0 0 0 -0 -0 -0 -0 -0 0 -0 -0 -0 -0 -0 0 -0 0 -0 0 0 0 0
0 0 0 -0 -0 -0 0 0 0 0 0 0 0 0 0 0 -0 -0 0 -0 -0 -0 -0 -0 0 -0 0 0 -0 -0 -0 0 0 0 -0 0 0 -0 0 0 0 0 0 -0
0 0 -0 -0 0 0 0 0 0 0 0 0 0 0 0 0 0 0 -0 -0 -0 -0 -0 -0 -0 0 0 0 0 0 0 0 0 -0 -0 -0 -0 -0 0 0 0 0 -0 -0
0 -0 -0 0 0 0 0 0 0 -0 -0 0 0 0 0 0 0 0 -0 -0 -0 -0 0 -0 -0 0 0 0 0 0 0 0 0 0 0 0 -0 -0 -0 0 0 0 0 0
0 0 0 -0 -0 -0 -0 0 0 0 0 -0 0 0 0 0 0 0 -0 -0 -0 -0 -0 -0 0 0 0 0 0 0 0 0 -0 0 0 -0 -0 -0 -0 -0 0 0 0 0
0 0 0 0 0 -0 0 0 0 0 0 -0 0 0 0 0 0 0 -0 -0 -0 -0 -0 0 0 0 0 0 0 0 0 0 -0 -0 -0 0 -0 -0 -0 -0 -0 -0 0 0
0 0 0 0 0 0 0 -0 0 0 0 0 0 0 0 0 0 0 0 0 0 0 0 0 0 0 0 0 0 0 0 -0 -0 -0 0 -0 -0 -0 -0 -0 -0 -0 0 0
-0 0 0 0 0 0 0 0 0 0 -0 0 0 0 0 0 0 0 0 0 -0 0 0 0 0 0 -0 -0 0 0 0 -0 -0 -0 -0 -0 -0 -0 0 0 0 0 -0 -0
Wind_Speed_500mb
54 64 66 60 59 58 44 24 7 23 33 12 8 8 7 6 17 9 11 7 18 23 23 25 28 33 30 22 34 30 34 36 35 46 42 45 51 42 42 16 9 15 15 18
70 68 62 58 57 58 35 12 11 22 25 9 12 10 13 15 13 18 17 16 13 15 24 21 27 32 33 35 31 21 21 16 31 45 43 51 60 59 52 48 21 38 30 21
60 59 57 59 61 54 31 13 7 4 14 4 13 16 19 17 6 16 16 19 14 18 27 28 17 25 24 27 26 24 22 31 47 39 48 48 55 54 39 26 20 20 18 20
57 56 59 62 63 49 21 9 7 13 7 7 16 14 10 24 15 15 19 13 20 21 12 21 26 30 34 32 31 25 14 34 46 52 60 58 64 66 59 42 44 28 42 44
52 53 58 57 49 42 21 13 9 11 10 25 25 15 19 17 20 13 15 18 20 17 22 29 35 37 37 38 41 43 36 34 38 47 51 58 63 66 57 54 57 55 49 53
55 56 51 46 43 38 13 13 14 18 13 6 13 17 21 19 18 18 24 24 24 25 28 34 34 40 46 40 39 43 40 35 38 47 45 50 33 60 57 49 50 51 48 49
46 45 43 43 42 29 12 20 17 11 10 17 20 11 12 18 18 22 22 17 22 29 27 32 41 49 54 55 51 51 44 46 35 37 40 49 48 34 56 55 49 48 47 44
40 40 43 46 38 32 14 15 17 13 9 25 22 14 12 14 17 21 26 28 29 27 26 18 19 21 30 42 49 49 44 43 36 35 37 43 59 44 39 33 39 39 38 29
36 36 33 33 33 31 16 19 15 7 4 11 13 9 15 14 16 18 24 18 14 13 9 14 21 20 34 18 21 36 33 35 29 35 45 46 44 47 27 59 36 37 38 36
34 32 33 32 28 27 18 14 16 10 7 7 10 13 11 12 8 9 13 16 20 24 16 21 28 33 40 24 29 25 18 13 33 35 37 37 48 52 46 27 20 11 22 25
29 28 25 23 26 28 21 14 16 12 8 8 13 19 20 14 15 13 1 7 22 15 14 20 25 25 20 14 25 22 26 22 22 20 25 39 36 45 44 19 21 6 28 16
29 27 26 25 26 26 21 8 12 7 6 8 8 16 25 28 28 27 14 14 14 10 8 9 7 16 14 29 26 20 10 4 12 16 14 14 35 38 27 37 50 18 22 16
23 22 22 22 24 24 19 6 13 8 4 23 30 29 29 34 38 38 30 39 41 32 27 16 10 16 16 21 23 30 25 23 21 28 24 31 24 42 31 29 40 30 29 22
21 21 19 20 18 17 19 8 11 10 3 8 8 7 19 26 28 38 43 45 29 25 24 17 12 15 22 22 30 31 27 28 30 36 38 35 24 43 24 31 35 32 24 22
20 19 19 18 17 16 18 15 14 18 11 7 16 30 28 34 35 35 38 40 41 40 19 12 21 33 25 22 29 30 30 29 18 23 37 35 31 25 17 28 33 25 30 28
22 20 17 16 18 18 11 2 7 12 21 8 6 11 22 23 24 28 39 40 41 32 17 17 34 48 31 16 27 42 45 42 40 34 45 47 49 46 42 39 40 36 33 27
21 18 18 20 15 12 2 6 8 7 8 3 9 8 7 11 16 23 28 29 29 27 18 29 46 48 44 26 35 51 59 59 57 51 43 50 48 48 44 45 47 47 47 44
16 14 11 9 7 4 4 8 12 8 7 7 6 7 12 14 16 17 21 21 22 19 26 33 23 37 32 16 40 53 52 46 42 37 37 44 47 46 46 46 46 49 53 52
11 8 4 1 3 4 3 12 10 19 11 7 9 7 6 3 17 7 8 14 9 20 11 21 17 19 15 25 32 39 42 46 43 45 44 43 45 45 45 50 56 56 52 53
6 6 3 3 7 10 8 1 9 9 10 12 10 22 11 9 11 6 6 10 8 7 12 8 6 15 51 56 54 55 42 32 29 31 31 30 30 32 39 40 35 44 42 42
3 5 3 1 5 4 6 7 10 14 7 13 13 19 16 13 9 7 8 5 6 7 5 6 6 9 9 14 24 22 27 33 29 32 37 41 37 36 35 36 29 26 28 33
6 1 6 6 7 8 8 6 5 7 5 6 8 11 14 8 11 9 9 6 6 11 6 6 7 2 3 3 11 18 22 25 32 35 38 35 32 32 36 37 35 30 28 25
5 2 2 6 9 9 8 11 8 7 12 12 14 9 10 12 14 11 5 8 11 8 6 6 5 8 5 4 12 22 26 33 35 36 31 26 29 34 37 39 38 36 37 29
5 6 6 8 9 10 9 10 12 13 14 21 18 11 10 10 9 6 8 9 6 8 7 9 5 9 5 7 14 23 30 29 31 31 28 27 31 36 34 32 35 38 40 37
6 8 8 12 20 17 17 18 24 32 33 28 12 12 14 8 7 8 8 7 10 9 7 7 10 6 9 15 22 28 27 28 29 29 28 28 31 32 28 27 26 27 35 38
9 13 10 19 15 20 24 26 32 34 28 14 13 8 7 11 7 11 14 7 9 6 6 11 12 12 14 21 28 29 29 27 28 28 26 26 24 26 25 21 15 7 10 21
11 14 27 36 35 34 34 29 27 14 10 6 7 8 6 7 8 9 9 12 10 15 18 17 16 15 22 29 28 28 26 26 26 27 23 22 20 17 21 15 8 3 7 14
Wind_Direction_500mb
164 163 162 163 165 163 157 156 116 168 156 159 152 203 217 166 180 201 214 270 276 281 282 272 270 265 255 277 298 294 293 296 282 278 283 290 293 269 267 269 270 271 296 282
159 158 160 165 167 167 150 105 99 161 158 174 188 179 212 212 196 239 222 218 225 272 270 277 264 268 281 289 291 293 341 281 279 273 266 255 251 257 255 262 257 255 259 258
156 156 163 170 169 162 160 116 116 136 204 278 224 203 224 201 214 264 274 264 255 266 264 259 264 278 280 290 305 317 293 276 267 267 274 285 284 287 298 262 248 251 248 306
158 162 165 169 169 170 163 100 152 168 164 215 229 238 201 218 184 221 221 226 237 243 242 252 265 278 294 297 280 275 273 272 273 270 273 275 281 269 267 249 260 258 274 270
156 163 166 169 176 176 166 120 138 194 176 191 197 179 194 207 221 208 237 231 282 309 291 286 300 303 289 282 289 286 269 273 281 284 281 274 271 259 262 273 272 273 272 278
166 170 169 170 173 174 153 140 148 169 155 181 196 200 228 229 259 244 251 261 270 255 256 271 276 279 280 271 265 266 263 268 277 273 285 281 290 259 253 253 261 267 275 283
164 166 167 173 178 174 177 173 174 192 182 188 217 229 230 250 236 250 266 249 260 274 288 284 280 270 265 261 261 259 262 263 261 265 275 270 273 293 246 249 257 258 262 273
163 164 170 173 173 174 171 174 190 203 202 192 207 203 235 261 258 246 254 263 273 282 277 283 274 259 256 256 251 247 237 242 250 255 256 280 289 279 261 261 274 264 275 276
160 161 160 166 174 175 161 176 191 198 214 216 203 210 223 244 247 259 255 257 261 247 256 252 249 262 278 281 313 295 235 249 236 240 255 259 267 286 337 314 250 267 248 258
155 165 169 170 172 171 166 187 163 180 199 205 196 205 234 222 247 277 269 251 262 235 237 243 251 260 264 269 280 305 288 251 233 230 244 256 263 274 283 278 256 300 294 246
161 172 171 175 181 183 165 173 185 196 204 234 226 240 236 231 233 255 265 295 232 237 243 249 256 258 263 263 284 306 302 287 244 231 240 258 317 271 265 239 346 300 284 225
158 158 164 170 174 181 170 159 181 200 223 257 275 251 242 240 243 254 236 258 297 260 270 263 314 304 283 285 284 314 293 348 305 289 290 217 250 282 300 301 311 283 289 280
157 158 165 173 180 183 174 169 183 161 281 287 260 258 263 242 237 236 240 244 243 247 248 282 278 263 293 283 290 292 304 319 296 302 295 315 354 295 276 264 295 253 253 271
156 162 168 179 189 180 176 195 202 205 223 271 281 252 236 240 242 231 230 246 258 259 267 233 253 269 278 281 287 289 289 295 288 284 287 310 280 267 309 292 273 283 251 241
140 147 157 169 178 182 186 216 219 213 229 317 299 293 280 246 237 235 235 243 251 258 257 242 257 267 277 278 278 272 273 271 275 276 298 306 298 323 317 323 310 282 277 249
136 140 141 149 161 159 144 206 282 235 219 281 292 296 276 261 244 236 236 243 240 227 240 255 256 262 260 270 271 275 293 290 284 284 289 288 293 290 284 284 286 288 265 259
132 130 126 131 132 124 166 8 112 149 148 249 283 272 203 229 232 234 233 230 233 225 238 249 258 261 263 259 265 276 282 287 286 284 295 287 276 280 283 282 274 259 252 246
128 130 135 148 171 215 247 231 219 203 253 256 273 266 260 211 243 244 231 221 224 221 238 253 258 261 258 247 253 272 284 291 293 283 280 285 288 281 276 272 269 263 260 248
136 133 129 151 198 226 201 260 245 225 245 266 209 265 307 192 267 264 247 231 232 239 237 240 261 255 236 260 278 286 299 306 308 301 294 287 286 286 286 282 274 264 255 255
136 101 212 235 169 223 249 288 192 210 215 229 259 261 245 301 278 279 276 211 245 255 232 211 230 264 262 271 274 279 285 294 296 298 297 304 296 296 293 280 266 257 256 260
164 205 183 126 258 242 220 234 217 191 224 215 251 257 250 221 240 253 250 267 250 257 192 230 235 260 267 266 252 275 271 281 288 293 287 289 287 289 291 292 287 274 267 268
206 325 270 249 225 220 236 208 232 232 267 263 230 226 230 222 221 255 243 247 253 255 148 240 255 265 145 138 263 276 283 288 299 303 299 291 285 287 285 282 280 282 270 272
297 270 222 219 187 237 233 193 205 218 191 226 231 219 226 182 218 245 253 238 238 308 232 241 278 8 148 304 317 305 305 308 307 307 304 291 289 293 293 288 280 270 270 248
250 225 242 229 181 239 223 280 339 335 267 284 275 261 221 183 191 242 244 234 259 257 240 255 15 33 33 311 316 318 314 311 314 315 309 301 306 309 306 296 287 272 257 247
244 224 242 225 242 269 273 284 291 297 305 300 291 245 217 184 227 213 250 240 241 236 260 1 28 1 324 316 318 316 316 314 315 320 314 308 313 321 320 316 307 282 245 236
232 234 247 251 262 266 260 265 283 299 308 310 247 250 218 210 214 200 218 246 242 264 7 358 340 325 318 318 318 316 316 318 314 314 313 309 319 326 325 332 336 318 225 221
223 235 237 256 272 274 278 283 297 319 310 263 261 249 218 250 225 218 224 234 297 352 344 336 331 327 319 320 320 317 315 317 316 314 317 317 319 330 341 342 354 54 165 186
Wind_Speed_850mb
54 64 66 60 59 58 44 24 7 23 33 12 8 8 7 6 17 9 11 7 18 23 23 25 28 33 30 22 34 30 34 36 35 46 42 45 51 42 42 16 9 15 15 18
70 68 62 58 57 58 35 12 11 22 25 9 12 10 13 15 13 18 17 16 13 15 24 21 27 32 33 35 31 21 21 16 31 45 43 51 60 59 52 48 21 38 30 21
60 59 57 59 61 54 31 13 7 4 14 4 13 16 19 17 6 16 16 19 14 18 27 28 17 25 24 27 26 24 22 31 47 39 48 48 55 54 39 26 20 20 18 20
57 56 59 62 63 49 21 9 7 13 7 7 16 14 10 24 15 15 19 13 20 21 12 21 26 30 34 32 31 25 14 34 46 52 60 58 64 66 59 42 44 28 42 44
52 53 58 57 49 42 21 13 9 11 10 25 25 15 19 17 20 13 15 18 20 17 22 29 35 37 37 38 41 43 36 34 38 47 51 58 63 66 57 54 57 55 49 53
55 56 51 46 43 38 13 13 14 18 13 6 13 17 21 19 18 18 24 24 24 25 28 34 34 40 46 40 39 43 40 35 38 47 45 50 33 60 57 49 50 51 48 49
46 45 43 43 42 29 12 20 17 11 10 17 20 11 12 18 18 22 22 17 22 29 27 32 41 49 54 55 51 51 44 46 35 37 40 49 48 34 56 55 49 48 47 44
40 40 43 46 38 32 14 15 17 13 9 25 22 14 12 14 17 21 26 28 29 27 26 18 19 21 30 42 49 49 44 43 36 35 37 43 59 44 39 33 39 39 38 29
36 36 33 33 33 31 16 19 15 7 4 11 13 9 15 14 16 18 24 18 14 13 9 14 21 20 34 18 21 36 33 35 29 35 45 46 44 47 27 59 36 37 38 36
34 32 33 32 28 27 18 14 16 10 7 7 10 13 11 12 8 9 13 16 20 24 16 21 28 33 40 24 29 25 18 13 33 35 37 37 48 52 46 27 20 11 22 25
29 28 25 23 26 28 21 14 16 12 8 8 13 19 20 14 15 13 1 7 22 15 14 20 25 25 20 14 25 22 26 22 22 20 25 39 36 45 44 19 21 6 28 16
29 27 26 25 26 26 21 8 12 7 6 8 8 16 25 28 28 27 14 14 14 10 8 9 7 16 14 29 26 20 10 4 12 16 14 14 35 38 27 37 50 18 22 16
23 22 22 22 24 24 19 6 13 8 4 23 30 29 29 34 38 38 30 39 41 32 27 16 10 16 16 21 23 30 25 23 21 28 24 31 24 42 31 29 40 30 29 22
21 21 19 20 18 17 19 8 11 10 3 8 8 7 19 26 28 38 43 45 29 25 24 17 12 15 22 22 30 31 27 28 30 36 38 35 24 43 24 31 35 32 24 22
20 19 19 18 17 16 18 15 14 18 11 7 16 30 28 34 35 35 38 40 41 40 19 12 21 33 25 22 29 30 30 29 18 23 37 35 31 25 17 28 33 25 30 28
22 20 17 16 18 18 11 2 7 12 21 8 6 11 22 23 24 28 39 40 41 32 17 17 34 48 31 16 27 42 45 42 40 34 45 47 49 46 42 39 40 36 33 27
21 18 18 20 15 12 2 6 8 7 8 3 9 8 7 11 16 23 28 29 29 27 18 29 46 48 44 26 35 51 59 59 57 51 43 50 48 48 44 45 47 47 47 44
16 14 11 9 7 4 4 8 12 8 7 7 6 7 12 14 16 17 21 21 22 19 26 33 23 37 32 16 40 53 52 46 42 37 37 44 47 46 46 46 46 49 53 52
11 8 4 1 3 4 3 12 10 19 11 7 9 7 6 3 17 7 8 14 9 20 11 21 17 19 15 25 32 39 42 46 43 45 44 43 45 45 45 50 56 56 52 53
6 6 3 3 7 10 8 1 9 9 10 12 10 22 11 9 11 6 6 10 8 7 12 8 6 15 51 56 54 55 42 32 29 31 31 30 30 32 39 40 35 44 42 42
3 5 3 1 5 4 6 7 10 14 7 13 13 19 16 13 9 7 8 5 6 7 5 6 6 9 9 14 24 22 27 33 29 32 37 41 37 36 35 36 29 26 28 33
6 1 6 6 7 8 8 6 5 7 5 6 8 11 14 8 11 9 9 6 6 11 6 6 7 2 3 3 11 18 22 25 32 35 38 35 32 32 36 37 35 30 28 25
5 2 2 6 9 9 8 11 8 7 12 12 14 9 10 12 14 11 5 8 11 8 6 6 5 8 5 4 12 22 26 33 35 36 31 26 29 34 37 39 38 36 37 29
5 6 6 8 9 10 9 10 12 13 14 21 18 11 10 10 9 6 8 9 6 8 7 9 5 9 5 7 14 23 30 29 31 31 28 27 31 36 34 32 35 38 40 37
6 8 8 12 20 17 17 18 24 32 33 28 12 12 14 8 7 8 8 7 10 9 7 7 10 6 9 15 22 28 27 28 29 29 28 28 31 32 28 27 26 27 35 38
9 13 10 19 15 20 24 26 32 34 28 14 13 8 7 11 7 11 14 7 9 6 6 11 12 12 14 21 28 29 29 27 28 28 26 26 24 26 25 21 15 7 10 21
11 14 27 36 35 34 34 29 27 14 10 6 7 8 6 7 8 9 9 12 10 15 18 17 16 15 22 29 28 28 26 26 26 27 23 22 20 17 21 15 8 3 7 14
Wind_Direction_850mb
164 163 162 163 165 163 157 156 116 168 156 159 152 203 217 166 180 201 214 270 276 281 282 272 270 265 255 277 298 294 293 296 282 278 283 290 293 269 267 269 270 271 296 282
159 158 160 165 167 167 150 105 99 161 158 174 188 179 212 212 196 239 222 218 225 272 270 277 264 268 281 289 291 293 341 281 279 273 266 255 251 257 255 262 257 255 259 258
156 156 163 170 169 162 160 116 116 136 204 278 224 203 224 201 214 264 274 264 255 266 264 259 264 278 280 290 305 317 293 276 267 267 274 285 284 287 298 262 248 251 248 306
158 162 165 169 169 170 163 100 152 168 164 215 229 238 201 218 184 221 221 226 237 243 242 252 265 278 294 297 280 275 273 272 273 270 273 275 281 269 267 249 260 258 274 270
156 163 166 169 176 176 166 120 138 194 176 191 197 179 194 207 221 208 237 231 282 309 291 286 300 303 289 282 289 286 269 273 281 284 281 274 271 259 262 273 272 273 272 278
166 170 169 170 173 174 153 140 148 169 155 181 196 200 228 229 259 244 251 261 270 255 256 271 276 279 280 271 265 266 263 268 277 273 285 281 290 259 253 253 261 267 275 283
164 166 167 173 178 174 177 173 174 192 182 188 217 229 230 250 236 250 266 249 260 274 288 284 280 270 265 261 261 259 262 263 261 265 275 270 273 293 246 249 257 258 262 273
163 164 170 173 173 174 171 174 190 203 202 192 207 203 235 261 258 246 254 263 273 282 277 283 274 259 256 256 251 247 237 242 250 255 256 280 289 279 261 261 274 264 275 276
160 161 160 166 174 175 161 176 191 198 214 216 203 210 223 244 247 259 255 257 261 247 256 252 249 262 278 281 313 295 235 249 236 240 255 259 267 286 337 314 250 267 248 258
155 165 169 170 172 171 166 187 163 180 199 205 196 205 234 222 247 277 269 251 262 235 237 243 251 260 264 269 280 305 288 251 233 230 244 256 263 274 283 278 256 300 294 246
161 172 171 175 181 183 165 173 185 196 204 234 226 240 236 231 233 255 265 295 232 237 243 249 256 258 263 263 284 306 302 287 244 231 240 258 317 271 265 239 346 300 284 225
158 158 164 170 174 181 170 159 181 200 223 257 275 251 242 240 243 254 236 258 297 260 270 263 314 304 283 285 284 314 293 348 305 289 290 217 250 282 300 301 311 283 289 280
157 158 165 173 180 183 174 169 183 161 281 287 260 258 263 242 237 236 240 244 243 247 248 282 278 263 293 283 290 292 304 319 296 302 295 315 354 295 276 264 295 253 253 271
156 162 168 179 189 180 176 195 202 205 223 271 281 252 236 240 242 231 230 246 258 259 267 233 253 269 278 281 287 289 289 295 288 284 287 310 280 267 309 292 273 283 251 241
140 147 157 169 178 182 186 216 219 213 229 317 299 293 280 246 237 235 235 243 251 258 257 242 257 267 277 278 278 272 273 271 275 276 298 306 298 323 317 323 310 282 277 249
136 140 141 149 161 159 144 206 282 235 219 281 292 296 276 261 244 236 236 243 240 227 240 255 256 262 260 270 271 275 293 290 284 284 289 288 293 290 284 284 286 288 265 259
132 130 126 131 132 124 166 8 112 149 148 249 283 272 203 229 232 234 233 230 233 225 238 249 258 261 263 259 265 276 282 287 286 284 295 287 276 280 283 282 274 259 252 246
128 130 135 148 171 215 247 231 219 203 253 256 273 266 260 211 243 244 231 221 224 221 238 253 258 261 258 247 253 272 284 291 293 283 280 285 288 281 276 272 269 263 260 248
136 133 129 151 198 226 201 260 245 225 245 266 209 265 307 192 267 264 247 231 232 239 237 240 261 255 236 260 278 286 299 306 308 301 294 287 286 286 286 282 274 264 255 255
136 101 212 235 169 223 249 288 192 210 215 229 259 261 245 301 278 279 276 211 245 255 232 211 230 264 262 271 274 279 285 294 296 298 297 304 296 296 293 280 266 257 256 260
164 205 183 126 258 242 220 234 217 191 224 215 251 257 250 221 240 253 250 267 250 257 192 230 235 260 267 266 252 275 271 281 288 293 287 289 287 289 291 292 287 274 267 268
206 325 270 249 225 220 236 208 232 232 267 263 230 226 230 222 221 255 243 247 253 255 148 240 255 265 145 138 263 276 283 288 299 303 299 291 285 287 285 282 280 282 270 272
297 270 222 219 187 237 233 193 205 218 191 226 231 219 226 182 218 245 253 238 238 308 232 241 278 8 148 304 317 305 305 308 307 307 304 291 289 293 293 288 280 270 270 248
250 225 242 229 181 239 223 280 339 335 267 284 275 261 221 183 191 242 244 234 259 257 240 255 15 33 33 311 316 318 314 311 314 315 309 301 306 309 306 296 287 272 257 247
244 224 242 225 242 269 273 284 291 297 305 300 291 245 217 184 227 213 250 240 241 236 260 1 28 1 324 316 318 316 316 314 315 320 314 308 313 321 320 316 307 282 245 236
232 234 247 251 262 266 260 265 283 299 308 310 247 250 218 210 214 200 218 246 242 264 7 358 340 325 318 318 318 316 316 318 314 314 313 309 319 326 325 332 336 318 225 221
223 235 237 256 272 274 278 283 297 319 310 263 261 249 218 250 225 218 224 234 297 352 344 336 331 327 319 320 320 317 315 317 316 314 317 317 319 330 341 342 354 54 165 186